Regional Weather Roundup
Issued by NWS

Home | Current Version | Previous Version | Graphics & Text | Print | Product List | Glossary On
Versions: 1 2 3 4 5 6 7 8 9 10 11 12 13 14 15 16 17 18 19 20 21 22 23 24 25 26 27 28 29 30 31 32 33 34 35 36 37 38 39 40 41 42 43 44 45 46 47 48 49 50
000
ASUS45 KSLC 271410
RWRUT

UTAH REGIONAL WEATHER ROUNDUP
NATIONAL WEATHER SERVICE SALT LAKE CITY UT
800 AM MDT THU APR 27 2017

UTZ001>011-023>025-271500-

NORTHERN UTAH

CITY           SKY/WX    TMP DP  RH WIND       PRES   REMARKS
BRIGHAM CITY   CLOUDY    41  28  60 SE3       29.82R
DUGWAY         MOSUNNY   40  34  79 NW8       29.85R WCI  34
HILL AFB       MOSUNNY   39  28  64 CALM      29.82R
LOGAN          MOSUNNY   40  26  57 W23       29.79R WCI  30
OGDEN          MOSUNNY   39  30  70 CALM      29.81R
SALT LAKE CITY MOSUNNY   44  31  60 NW15      29.83R
TOOELE VALLEY  MOSUNNY   41  32  70 N8        29.86S
WENDOVER       SUNNY     43  21  41 CALM      29.85S
HEBER CITY     CLOUDY    37  27  65 W5        29.76S WCI  34
WEST JORDAN    MOSUNNY   42  36  79 NW14      29.84R

$$

UTZ011>015-024>027-271500-

CENTRAL/NORTHEAST UTAH

CITY           SKY/WX    TMP DP  RH WIND       PRES   REMARKS
PROVO AIRPORT  MOSUNNY   42  30  62 N17       29.83R
MOAB/CANYONLAN PTSUNNY   50  39  66 W15       29.69R
DELTA          SUNNY     41  34  75 N9        29.86R
PRICE          MOSUNNY   40  31  70 NW10      29.72R WCI  33
ROOSEVELT      SUNNY     45  27  49 W24G33    29.66S
VERNAL         CLOUDY    43  39  86 CALM      29.64S

$$

UTZ013>016-019>022-027-271500-

SOUTHERN UTAH

CITY           SKY/WX    TMP DP  RH WIND       PRES   REMARKS
BRYCE CANYON   PTSUNNY   36  32  85 NW14G25   29.82R WCI  27
CEDAR CITY     LGT RAIN  41  38  89 NE10      29.84R
MILFORD        PTSUNNY   42  38  85 N14       29.84R
ST GEORGE      MOSUNNY   62  35  36 W12       29.75R
HANKSVILLE     MOSUNNY   50  32  50 NW18G26   29.76R
BLANDING       CLOUDY    44  43  95 CALM      29.81R

$$

REGIONAL REPORTS     COLORADO/ARIZONA

CITY           SKY/WX    TMP DP  RH WIND       PRES   REMARKS
CRAIG, CO      LGT RAIN  39  35  86 W23G32    29.65R FOG     WCI  28
GRAND JUNCTION CLOUDY    45  43  93 CALM      29.68S
RIFLE, CO      CLOUDY    42  39  89 NW6       29.66S
MONTROSE, CO   CLOUDY    40  37  89 S8        29.71R WCI  34
CORTEZ, CO     CLOUDY    44  43  96 CALM      29.73R
COLORADO CITY    N/A     55  37  50 NW5       29.83R
PAGE, AZ       MOSUNNY   57  38  48 SE3       29.71R
GRAND CANYON   MOSUNNY   46  34  62 W9        29.84R
KINGMAN, AZ    SUNNY     60  40  47 S7        29.77R
FLAGSTAFF, AZ  PTSUNNY   49  32  52 W15G23    29.86R

$$

REGIONAL REPORTS    NEVADA/IDAHO/WYOMING

CITY           SKY/WX    TMP DP  RH WIND       PRES   REMARKS
LAS VEGAS, NV  MOSUNNY   71  22  15 NW21G31   29.73R
ELY, NY        PTSUNNY   38  30  73 NW7       29.89S WCI  33
ELKO, NV       FLURRIES  36  30  79 W5        29.89S WCI  32
POCATELLO, ID  CLOUDY    36  33  89 SW16      29.77R WCI  26
BURLEY, ID     SUNNY     37  31  78 W13G29    29.81R WCI  29
FORT BRIDGER,    N/A     31  27  85 W30G36    29.73R WCI  17
EVANSTON, WY   CLOUDY    28  22  78 W17       29.76R WCI  16
ROCK SPRINGS,  CLOUDY    32  26  78 W22G29    29.65R WCI  19

$$



USA.gov is the U.S. government's official web portal to all federal, state and local government web resources and services.